TimeSAST,TemperatureF,Dew PointF,Humidity,Sea Level PressureIn,VisibilityMPH,Wind Direction,Wind SpeedMPH,Gust SpeedMPH,PrecipitationIn,Events,Conditions,WindDirDegrees,DateUTC
2:00 AM,60,53,71,29.92,37,WNW,3.5,,,,,300,2014-03-29 00:00:00
5:00 AM,61,49,55,29.88,12,North,3.5,,,,,0,2014-03-29 03:00:00
5:00 AM,60.8,50.0,68,29.86,-9999.0,North,3.5,-,N/A,,Clear,360,2014-03-29 03:00:00
6:00 AM,60.8,50.0,68,29.86,-9999.0,North,4.6,-,N/A,,Clear,360,2014-03-29 04:00:00
7:00 AM,55.4,51.8,88,29.86,-9999.0,NW,4.6,-,N/A,,Clear,320,2014-03-29 05:00:00
8:00 AM,63,54,65,29.89,12,SW,2.3,,,,Clear,230,2014-03-29 06:00:00
8:00 AM,62.6,53.6,72,29.89,-9999.0,SW,2.3,-,N/A,,Clear,230,2014-03-29 06:00:00
9:00 AM,68.0,57.2,68,29.89,-9999.0,SSW,9.2,-,N/A,,Clear,200,2014-03-29 07:00:00
10:00 AM,68.0,60.8,78,29.92,6.2,South,9.2,-,N/A,,Partly Cloudy,190,2014-03-29 08:00:00
11:00 AM,70,60,63,29.94,12,SSW,11.5,,,,Scattered Clouds,200,2014-03-29 09:00:00
11:00 AM,69.8,60.8,73,29.92,6.2,SSW,11.5,-,N/A,,Partly Cloudy,200,2014-03-29 09:00:00
12:00 PM,69.8,62.6,78,29.92,6.2,SSW,13.8,-,N/A,,Scattered Clouds,210,2014-03-29 10:00:00
1:00 PM,69.8,60.8,73,29.92,6.2,SSW,16.1,-,N/A,,Mostly Cloudy,200,2014-03-29 11:00:00
2:00 PM,68,60,70,29.94,12,SSW,13.8,,,,Mostly Cloudy,200,2014-03-29 12:00:00
2:00 PM,68.0,60.8,78,29.92,6.2,SSW,13.8,-,N/A,,Mostly Cloudy,200,2014-03-29 12:00:00
3:00 PM,69.8,60.8,73,29.92,6.2,SSW,10.4,-,N/A,,Scattered Clouds,200,2014-03-29 13:00:00
4:00 PM,68.0,59.0,73,29.92,6.2,SSW,16.1,-,N/A,,Mostly Cloudy,200,2014-03-29 14:00:00
5:00 PM,66,58,70,29.96,12,SSW,10.4,,,,Mostly Cloudy,200,2014-03-29 15:00:00
5:00 PM,66.2,59.0,78,29.95,6.2,SSW,10.4,-,N/A,,Mostly Cloudy,200,2014-03-29 15:00:00
6:00 PM,66.2,57.2,73,29.95,6.2,SW,4.6,-,N/A,,Mostly Cloudy,220,2014-03-29 16:00:00
7:00 PM,66.2,57.2,73,29.98,6.2,Variable,2.3,-,N/A,,Mostly Cloudy,0,2014-03-29 17:00:00
8:00 PM,65,58,73,30.00,12,NNW,4.6,,,,Mostly Cloudy,330,2014-03-29 18:00:00
8:00 PM,66.2,59.0,78,29.98,6.2,NNW,4.6,-,N/A,,Mostly Cloudy,330,2014-03-29 18:00:00
9:00 PM,66.2,57.2,73,30.01,6.2,WNW,3.5,-,N/A,,Overcast,300,2014-03-29 19:00:00
10:00 PM,66.2,59.0,78,30.01,6.2,WSW,3.5,-,N/A,,Mostly Cloudy,250,2014-03-29 20:00:00
11:00 PM,64.4,59.0,83,30.01,6.2,West,5.8,-,N/A,,Mostly Cloudy,270,2014-03-29 21:00:00